Location: ???????
(55.5931°N, 39.3286°E)
Time: 21:23:16
(UTC+00:00)

SAR-Lupe-4 - Pass Details

Date: 14 April 2024
Orbit: 476 x 482 km, 98.1° (Epoch: 02 April)

Event Time Altitude Azimuth Distance (km) Brightness Sun altitude
Rises 00:30:30 0° 13° (NNE) 2,548 8.2 -14.2°
Reaches altitude 10° 00:32:35 10° 10° (N) 1,664 7.1 -13.9°
Maximum altitude 00:36:06 60° 290° (WNW) 553 3.6 -13.6°
Enters shadow 00:38:08 23° 216° (SW) 1,062 4.7 -13.3°
